Location: Ripley
(48.3812°N, 115.4473°W)
Time: 07:13:18
(UTC+00:00)

EO-88 - Pass Details

Date: 28 June 2022
Orbit: 454 x 462 km, 97.3° (Epoch: 07 August)

Event Time Altitude Azimuth Distance (km) Brightness Sun altitude
Exits shadow 04:43:57 10° 151° (SSE) 1,655 ? -7.7°
Reaches altitude 10° 04:44:01 10° 151° (SSE) 1,626 ? -7.7°
Maximum altitude 04:47:26 55° 73° (ENE) 574 ? -8.1°
Drops below altitude 10° 04:50:53 10° 356° (N) 1,639 ? -8.4°
Sets 04:52:58 0° 352° (N) 2,520 ? -8.7°
